FENGYUN 1C DEB, 30704

Orbit data source: Space-Track

FENGYUN 1C DEB, 30704 is space debris in SSO originally from a launch on Mon, 10 May 1999 UTC launched from the Taiyaun Space Center, China (TSC). Fengyun 1C debris stems from the Chinese weather satellite Fengyun-1C, which was intentionally destroyed by a Chinese anti-satellite missile in 2007. This event dramatically increased the amount of space debris, with thousands of trackable fragments posing hazards to satellites and human spaceflight. The Fengyun 1C debris cloud has become a focal point in discussions about space sustainability and the need for international regulations to prevent the creation of new debris.

Loading next visibility...
Identifier
30704, 1999-025ARN
Orbit
SSO
Country
Flag of CNCN / PRC
Related business
Manufacturer
Unknown
Mission
Spacecraft
Bus & Motor
Unknown
Mass
Unknown
Launch date (UTC)
1999-05-10 (27 years ago)
Launch vehicle
Unknown
Launch site
Taiyaun Space Center, China (TSC)
Object type
Payload
Rocket body
Debris
Shape & HBR
Unknown shape, 0.1 m
Radar Cross Section
Medium (>0.1 m² and <1 m²)

Expand to show TLE details & history
Last TLE update: 16 hours ago

TLE from 16 hours ago
0 FENGYUN 1C DEB
1 30704U 99025ARN 26207.45504175  .00000686  00000-0  46265-3 0  9993
2 30704  98.8794 205.3298 0081236 190.7615 324.8272 14.02213383992745
Epoch: 2026-07-26T10:55Z
TLE epoch observation values (Epoch: 2026-07-26T10:55:15.607Z)
Latitude
24.6609°
Longitude
-78.54655°
Altitude
841.011 km
Speed
7.459 km/s
True Right ascension
01h 57m 41s
True Declination
24° 31' 56"
Sunlit
Object was in daylight at epoch
Visualization orbit readout
Latitude
Unknown
Longitude
Unknown
Altitude
Unknown
Speed
Unknown
Apparent Right ascension
Unknown
Apparent Declination
Unknown
Sunlit
N/A
Visualization observer readout
Local Sidereal Time
16:15:28
Azimuth
Unknown
Elevation
Unknown
Doppler factor
Unknown
Orbital elements
Apogee altitude
942.32 km
Perigee altitude
824.342 km
Semi-major axis
7,261.468 km
Eccentricity
0.00812
Inclination
98.8794°
RAAN
205.3298°
Arg. of periapsis
190.7615°
True anomaly
324.28648°
Mean anomaly
324.8272°
Eccentric anomaly
324.55729°
Mean motion
3.50757 °/min
Orbital period
102.64 mins
BSTAR
0.00046265
Loading maneuver chart data...
Computing Atmospheric mass density...

Documentation

Showing up to 5 results
|